Temperature
13 14 14 15 15 16 16 17 17 17 18 18 19 19 19 19 20 19 19 19 19 18 18 18 18 18 18 18 18 18 18 18 18 17 17 17 17 17 17 17 17 17 17
13 13 14 14 14 15 15 16 16 16 17 17 17 18 19 19 19 19 19 19 19 18 18 18 18 18 18 18 17 17 17 17 17 17 17 17 17 17 17 17 17 17 17
12 12 13 13 14 14 14 14 15 15 16 16 17 17 18 18 18 19 19 19 19 18 18 18 18 17 17 17 17 17 17 17 17 17 17 17 17 17 17 17 17 17 17
12 12 12 12 13 13 13 13 14 14 15 15 15 16 16 17 18 18 18 18 18 18 18 18 18 17 17 17 17 16 16 16 16 17 17 17 17 17 17 17 17 17 17
11 11 12 12 12 13 13 13 13 13 14 14 14 15 15 16 16 17 17 17 17 18 18 18 17 17 17 17 16 16 16 16 16 16 16 16 16 16 16 16 17 17 17
11 11 12 12 12 13 13 13 13 13 13 14 14 14 15 15 15 16 16 16 16 16 17 17 17 16 16 16 16 16 16 15 15 15 15 15 15 16 16 16 16 16 16
11 11 11 12 12 12 12 12 12 13 13 13 13 14 14 14 15 15 15 15 15 15 15 15 15 16 15 15 15 15 15 15 15 15 15 15 15 15 15 15 15 15 16
11 11 11 11 11 12 12 12 12 12 13 13 13 13 13 14 14 14 14 15 15 15 15 15 15 15 15 15 15 15 15 15 15 15 15 15 15 14 14 15 15 15 15
11 11 11 11 11 12 12 12 12 12 13 13 13 13 13 13 13 14 14 14 14 14 14 14 14 14 14 14 14 14 14 14 14 14 14 14 14 14 14 14 14 14 15
12 11 11 11 11 11 12 12 12 12 12 13 13 13 13 13 13 13 13 14 14 14 14 14 14 14 14 14 14 14 14 14 14 14 14 14 14 14 14 14 14 14 14
12 12 12 11 11 11 12 12 12 12 12 12 13 13 13 13 13 13 13 13 13 13 13 13 13 13 13 13 13 13 13 13 13 13 14 14 14 14 14 14 14 14 14
12 12 12 12 12 11 11 11 11 12 12 12 12 12 13 13 13 13 13 13 13 13 13 13 13 13 13 13 13 13 13 13 13 13 14 14 14 14 14 14 14 14 14
13 13 13 12 12 12 11 11 11 11 11 12 12 12 12 12 13 13 13 13 13 13 13 13 13 13 13 13 13 13 13 13 13 13 14 14 14 14 14 14 14 14 14
13 13 13 13 12 12 12 11 11 11 11 11 12 12 12 12 12 12 12 13 13 13 13 13 13 13 13 13 13 13 13 13 14 14 14 14 14 14 14 14 14 14 14
14 13 13 13 13 12 12 12 11 11 11 11 11 11 11 11 11 12 12 12 12 12 12 12 13 13 13 13 13 13 13 13 14 14 14 14 14 14 14 14 14 14 14
14 14 14 13 13 13 12 12 11 11 11 11 11 11 11 11 11 11 11 11 11 11 12 12 12 12 12 12 13 13 13 13 13 14 14 14 14 14 14 14 14 14 14
14 14 14 14 13 13 13 12 12 11 11 11 11 11 10 10 10 10 11 11 11 11 11 11 11 12 12 12 12 12 13 13 13 13 14 14 14 14 14 14 14 14 14
14 14 14 14 14 13 13 12 12 12 11 11 11 11 10 10 10 10 10 10 10 10 11 11 11 11 11 11 12 12 12 12 13 13 13 13 14 14 14 14 14 14 14
14 14 14 14 14 14 13 13 12 12 12 11 11 11 10 10 10 10 10 10 10 10 10 10 11 11 11 11 11 11 12 12 12 12 13 13 13 13 14 14 14 14 13
14 14 14 14 14 14 13 13 13 12 12 11 11 11 11 10 10 10 10 10 10 10 10 10 10 10 10 10 11 11 11 11 11 12 12 12 13 13 13 13 13 13 13
14 14 14 14 14 14 14 13 13 13 12 12 11 11 11 10 10 10 10 10 10 10 10 10 10 10 10 10 10 10 10 10 11 11 11 12 12 12 13 13 13 13 13
14 14 14 14 14 14 14 14 13 13 12 12 11 11 11 10 10 10 10 10 10 10 9 9 9 9 9 9 10 10 10 10 10 11 11 11 12 12 12 13 13 13 13
14 14 14 14 14 14 14 14 13 13 12 12 11 11 11 10 10 10 10 10 10 9 9 9 9 9 9 9 9 9 9 10 10 10 10 11 11 11 12 12 13 13 13
14 14 14 14 14 14 14 14 13 13 13 12 12 11 11 10 10 10 10 10 9 9 9 9 9 9 9 9 9 9 9 9 9 10 10 10 11 11 11 12 12 12 12
15 14 14 14 14 14 14 14 13 13 13 12 12 11 11 10 10 10 10 9 9 9 9 8 8 9 9 9 9 9 9 9 9 9 10 10 10 11 11 11 12 12 12
15 15 15 14 14 14 14 14 14 13 13 12 12 11 11 10 10 10 10 9 9 9 8 8 8 8 8 8 9 9 9 9 9 9 10 10 10 10 11 11 11 11 11
Wind_Speed
11 11 11 10 10 11 11 11 11 11 9 6 4 4 5 6 6 7 9 10 10 11 8 6 5 5 6 6 6 4 4 3 3 3 1 1 2 3 4 3 3 5 8
14 14 12 11 11 12 11 11 11 11 9 8 6 4 4 4 5 5 7 9 10 9 8 7 5 5 5 4 5 4 3 3 4 4 3 1 3 2 2 3 4 5 5
15 14 13 12 11 11 12 11 11 11 10 10 7 6 3 2 2 4 6 6 8 9 7 7 6 6 5 5 5 5 5 4 3 2 4 4 5 3 2 2 2 3 4
14 13 13 12 12 11 11 10 10 10 10 10 8 8 4 4 4 3 4 5 6 7 8 8 8 8 7 7 7 6 4 4 4 2 1 2 3 3 1 2 2 2 3
14 13 12 11 11 10 10 9 9 9 9 9 9 8 6 4 3 2 2 3 4 5 6 7 8 8 7 8 8 8 7 5 5 4 3 2 1 2 2 2 1 1 2
14 13 12 11 10 10 9 9 9 9 9 9 9 9 8 6 4 2 1 1 1 2 3 4 6 6 6 8 8 8 8 7 6 5 4 4 3 4 4 3 2 2 2
13 13 13 13 12 12 11 9 9 9 10 9 9 9 8 7 6 4 3 3 2 1 2 3 3 4 5 6 6 7 8 8 7 7 6 5 4 3 4 4 3 2 2
13 14 13 12 12 12 11 10 10 9 9 9 9 8 8 6 5 6 5 4 3 2 2 2 3 3 4 4 4 4 5 5 6 7 6 4 4 4 4 4 4 2 1
14 14 13 12 11 11 11 11 10 10 9 9 9 9 8 7 6 6 5 4 3 3 3 3 3 3 3 4 4 3 3 4 4 4 5 4 4 4 4 3 4 5 3
13 13 12 12 11 10 10 10 10 10 9 9 8 8 8 8 7 6 6 5 4 4 4 4 4 4 4 3 3 3 3 3 3 3 4 3 3 4 4 4 3 3 4
11 11 10 10 10 10 10 10 11 11 11 10 9 9 9 9 8 7 7 5 4 4 4 4 4 4 3 3 3 3 3 3 2 2 3 3 3 4 4 4 4 4 4
9 8 9 9 9 10 10 10 10 10 10 10 9 10 9 9 10 9 8 7 6 5 4 4 4 4 3 3 2 2 2 2 2 1 2 2 3 4 4 4 4 4 4
9 8 8 9 9 9 9 9 9 9 9 9 9 10 10 10 10 10 9 9 8 8 7 7 6 5 4 4 2 2 1 2 2 2 3 4 4 4 3 4 4 3 3
8 8 8 8 8 7 7 8 8 8 9 9 9 10 10 9 9 9 9 10 9 9 9 8 7 6 5 4 3 2 1 0 2 3 4 4 5 5 5 4 4 4 4
8 8 7 6 7 7 7 7 7 8 8 8 9 8 8 8 9 9 9 9 10 10 9 9 9 8 6 6 4 3 2 1 2 2 2 3 5 6 5 4 5 5 4
8 8 8 7 6 6 6 6 6 7 7 7 8 7 8 8 8 8 8 9 10 9 10 10 9 10 9 11 9 5 3 2 2 2 2 1 2 4 6 6 7 7 5
7 7 7 6 6 5 4 5 5 5 6 7 7 7 7 7 7 7 8 8 8 9 10 10 10 10 11 14 12 9 5 4 3 3 2 1 2 4 4 6 7 5 5
7 7 7 7 5 4 4 3 3 5 6 6 7 7 7 7 7 7 8 7 7 7 7 9 9 9 12 16 13 10 6 5 5 4 3 2 2 3 6 6 6 6 5
5 5 5 5 5 5 4 3 4 4 5 6 6 6 6 7 7 7 7 6 6 7 7 7 9 9 11 16 14 11 5 5 6 6 5 4 3 4 7 7 7 6 5
4 5 6 5 5 5 3 2 3 4 4 4 4 5 6 6 7 6 6 5 5 6 6 7 8 8 9 14 15 11 4 5 5 5 6 7 5 4 6 6 7 7 5
5 6 6 6 6 6 3 3 3 3 2 2 4 5 6 6 6 5 5 5 6 6 7 7 7 8 10 13 15 13 5 4 4 4 4 5 6 5 5 5 4 6 7
5 6 6 6 6 6 4 4 4 3 2 4 5 6 6 5 5 6 6 6 6 7 7 7 8 7 8 10 12 14 10 6 4 3 3 3 6 7 7 5 7 10 9
4 4 5 5 6 6 5 5 5 2 3 5 5 5 6 6 5 6 6 6 6 6 7 7 7 8 8 9 14 14 13 10 5 3 5 7 8 8 7 9 10 8 6
3 4 4 5 6 7 6 5 4 1 4 5 4 4 4 4 5 5 5 5 6 6 6 7 7 7 7 8 8 8 7 8 6 5 7 10 11 9 8 8 7 5 5
2 2 3 3 5 6 6 6 4 2 3 4 4 3 3 3 3 3 3 3 2 3 3 4 4 6 7 9 11 8 7 5 4 4 5 6 6 7 6 6 6 5 5
1 2 3 3 4 5 6 6 4 1 3 3 3 2 2 1 1 1 2 2 1 4 5 6 5 3 6 9 12 13 14 13 10 7 7 7 7 7 6 6 6 5 5
Wind_Direction
351 352 354 353 351 352 351 346 347 346 345 338 320 279 248 231 219 212 206 200 198 198 198 207 202 198 209 213 196 179 185 182 145 122 126 291 254 231 233 223 222 228 229
350 349 349 350 352 348 346 343 344 342 343 334 315 287 277 251 226 214 200 193 188 188 195 199 198 193 201 202 188 180 172 171 162 149 139 220 307 274 237 230 223 225 217
346 341 343 343 344 345 343 341 338 339 340 336 326 312 292 274 223 207 204 195 188 184 180 181 181 181 187 194 189 189 182 180 186 174 154 164 215 255 290 263 240 220 211
342 340 341 340 339 337 335 334 334 337 341 342 340 331 309 284 266 247 212 191 188 177 176 173 173 175 181 187 190 187 187 178 189 192 179 158 156 165 250 307 301 258 224
338 336 337 334 332 332 333 332 335 339 343 346 345 340 329 306 300 285 214 192 184 178 173 173 171 176 184 188 188 188 192 194 194 183 165 149 129 139 162 228 291 320 273
335 334 335 336 335 336 336 339 341 342 345 348 350 351 348 348 357 6 66 111 124 135 154 169 168 176 186 192 195 194 194 198 199 194 183 176 177 185 177 197 219 254 290
343 341 341 344 343 339 341 345 348 345 347 352 355 355 356 6 19 19 44 70 76 86 130 150 163 177 187 192 195 195 198 197 197 199 202 198 189 169 166 175 187 221 277
346 347 347 346 343 345 350 351 351 348 350 355 355 359 5 13 19 24 34 44 49 56 78 113 139 151 160 174 179 185 188 184 190 193 185 184 188 175 171 167 158 173 256
347 349 350 352 352 356 357 357 357 356 357 359 359 5 8 14 19 23 33 39 40 53 70 86 96 108 123 132 139 148 160 160 174 183 182 184 186 183 181 170 167 167 195
345 347 351 353 356 1 359 3 5 3 5 8 11 12 11 13 17 25 28 33 38 49 64 78 88 90 95 110 120 129 129 135 145 160 171 180 181 179 178 184 184 174 171
338 340 343 346 352 1 7 11 12 12 13 13 14 18 16 17 23 28 25 25 35 46 59 67 77 84 91 103 112 122 127 124 131 144 163 193 187 178 177 175 172 172 163
334 338 340 347 358 3 4 7 10 12 12 11 16 20 19 22 26 26 23 27 34 38 47 62 69 66 66 72 90 105 108 126 160 182 183 215 197 185 177 173 174 173 173
341 345 347 352 357 358 359 3 6 7 8 12 18 22 22 23 25 26 27 33 35 37 41 48 52 48 49 50 53 89 118 159 183 197 203 204 188 192 181 178 172 168 166
339 345 346 347 349 351 356 0 1 2 8 14 22 24 21 22 24 27 32 35 38 40 40 40 39 35 38 37 26 40 56 113 220 212 205 198 191 191 182 175 167 154 144
343 344 341 341 344 350 353 357 1 2 7 17 22 16 15 21 26 29 30 33 37 40 36 37 33 26 28 25 17 7 7 335 296 266 218 209 202 192 176 167 161 150 141
336 338 339 341 342 345 345 352 358 358 8 19 17 13 19 24 25 27 30 33 32 32 34 32 28 27 24 23 29 25 14 6 343 325 320 262 201 188 174 165 159 155 150
324 331 330 326 323 327 332 341 343 357 16 19 17 17 21 26 22 28 33 30 27 30 32 27 24 21 15 24 29 33 32 27 17 354 336 329 111 128 125 130 123 122 137
325 326 323 322 318 318 331 339 357 12 22 23 19 18 23 26 25 33 32 26 24 28 27 25 21 19 16 22 26 31 33 36 33 26 18 38 76 107 127 119 106 91 80
307 306 309 309 314 320 329 358 5 12 25 25 23 22 27 32 32 33 27 22 30 32 28 22 21 19 11 16 23 28 22 32 29 28 37 51 63 93 123 124 119 105 84
331 334 335 340 346 336 339 12 359 6 14 20 35 40 42 44 38 34 32 27 34 29 21 22 19 17 11 13 20 24 23 24 20 22 25 35 47 75 117 128 133 131 125
349 355 359 360 346 339 0 12 359 350 355 60 66 56 50 52 44 40 34 32 31 29 22 17 11 13 11 11 18 22 24 18 20 25 17 13 36 67 96 117 129 141 133
356 1 3 358 352 1 18 11 352 334 68 92 81 66 52 50 49 48 40 33 29 30 22 14 11 7 5 8 14 22 29 31 34 24 9 10 49 71 85 100 119 123 118
357 358 1 359 0 4 13 4 336 348 105 101 93 79 66 54 48 52 46 37 32 32 24 17 11 2 1 6 13 18 25 30 37 32 44 57 64 67 68 85 104 110 113
349 352 1 5 354 349 358 350 337 51 115 115 113 97 80 61 47 47 47 47 36 30 23 15 7 360 1 6 5 4 10 19 32 41 55 64 66 65 64 70 74 83 104
328 346 351 343 337 341 348 350 358 76 112 122 128 117 101 86 54 42 38 42 26 15 10 354 351 357 1 1 14 23 19 19 31 49 52 52 55 60 63 66 68 72 84
295 329 338 335 334 343 345 347 353 60 135 136 149 156 154 139 88 10 349 337 335 11 28 25 22 358 9 17 27 34 35 38 48 62 60 56 55 59 63 70 71 67 74
Height
1548 1544 1540 1537 1533 1530 1527 1524 1521 1518 1516 1515 1514 1513 1514 1515 1517 1519 1521 1523 1525 1527 1529 1532 1534 1537 1539 1541 1543 1545 1547 1550 1552 1553 1555 1556 1557 1558 1559 1560 1561 1562 1563
1546 1542 1539 1536 1531 1528 1525 1522 1519 1516 1513 1511 1510 1509 1509 1509 1510 1513 1515 1517 1519 1522 1524 1526 1529 1531 1534 1536 1538 1540 1543 1545 1548 1550 1551 1552 1554 1554 1555 1556 1558 1559 1560
1547 1542 1538 1535 1531 1527 1524 1521 1517 1514 1511 1509 1506 1505 1504 1504 1505 1506 1508 1511 1513 1516 1518 1520 1523 1525 1528 1531 1533 1535 1538 1541 1543 1546 1548 1548 1549 1550 1551 1552 1554 1555 1557
1546 1542 1538 1534 1530 1527 1523 1520 1517 1513 1509 1506 1504 1502 1500 1500 1500 1501 1503 1505 1507 1510 1513 1515 1517 1520 1522 1525 1527 1530 1533 1536 1538 1541 1543 1545 1546 1547 1547 1548 1549 1551 1553
1546 1542 1537 1533 1530 1526 1523 1519 1516 1512 1508 1505 1502 1500 1498 1497 1497 1497 1498 1500 1502 1505 1507 1510 1513 1514 1516 1519 1522 1524 1527 1530 1533 1535 1537 1539 1541 1543 1544 1545 1546 1547 1549
1546 1541 1537 1532 1529 1526 1522 1519 1515 1512 1508 1505 1502 1499 1497 1495 1495 1495 1496 1497 1499 1500 1503 1506 1508 1511 1513 1515 1517 1519 1521 1524 1526 1529 1532 1534 1536 1537 1539 1541 1542 1544 1546
1546 1541 1536 1531 1528 1525 1522 1518 1515 1512 1509 1505 1502 1500 1497 1495 1495 1494 1495 1496 1497 1498 1500 1502 1504 1507 1509 1510 1513 1514 1516 1519 1521 1523 1525 1528 1530 1533 1534 1536 1538 1540 1542
1548 1542 1537 1533 1529 1526 1522 1519 1516 1513 1510 1507 1504 1501 1499 1497 1496 1495 1495 1496 1496 1497 1499 1500 1502 1503 1505 1507 1508 1510 1512 1514 1517 1519 1521 1523 1526 1528 1530 1532 1534 1536 1538
1550 1544 1539 1535 1530 1527 1523 1520 1517 1514 1511 1509 1506 1504 1501 1500 1498 1497 1496 1496 1497 1497 1498 1498 1499 1500 1502 1504 1506 1507 1509 1511 1514 1516 1518 1520 1522 1524 1526 1529 1531 1534 1535
1552 1547 1542 1538 1533 1529 1525 1522 1519 1516 1513 1511 1508 1506 1504 1502 1500 1499 1498 1498 1498 1498 1498 1498 1498 1499 1500 1502 1504 1506 1507 1509 1511 1513 1515 1517 1519 1521 1523 1526 1528 1530 1532
1555 1550 1546 1542 1537 1533 1529 1525 1522 1519 1516 1513 1511 1509 1507 1505 1503 1502 1501 1500 1500 1499 1499 1499 1499 1499 1500 1501 1503 1504 1506 1507 1509 1512 1514 1516 1518 1520 1522 1524 1526 1527 1529
1558 1554 1549 1545 1541 1537 1533 1529 1526 1522 1519 1517 1514 1512 1510 1508 1506 1504 1503 1503 1502 1502 1501 1501 1501 1501 1501 1502 1503 1504 1505 1507 1509 1511 1512 1515 1517 1519 1520 1522 1524 1525 1526
1560 1556 1552 1548 1545 1541 1537 1534 1530 1527 1524 1521 1518 1515 1513 1510 1508 1507 1505 1504 1504 1503 1503 1502 1502 1502 1502 1502 1503 1504 1505 1507 1508 1510 1512 1514 1516 1518 1519 1521 1522 1523 1524
1562 1558 1555 1552 1548 1545 1541 1538 1535 1531 1528 1525 1522 1519 1516 1514 1512 1510 1508 1506 1505 1504 1504 1503 1503 1502 1502 1503 1503 1504 1505 1507 1508 1510 1511 1513 1515 1517 1518 1520 1521 1522 1522
1563 1560 1557 1554 1551 1548 1545 1541 1538 1535 1532 1529 1526 1523 1520 1518 1515 1513 1511 1509 1507 1506 1505 1504 1504 1503 1503 1503 1503 1504 1505 1506 1507 1509 1510 1512 1514 1516 1517 1519 1519 1520 1521
1564 1562 1559 1556 1553 1550 1547 1544 1542 1539 1536 1533 1529 1526 1524 1521 1519 1516 1514 1512 1510 1509 1507 1506 1505 1504 1503 1503 1503 1503 1504 1505 1506 1507 1509 1511 1513 1515 1516 1517 1519 1520 1521
1566 1563 1560 1557 1554 1552 1549 1547 1544 1542 1539 1536 1533 1530 1527 1525 1522 1520 1518 1516 1514 1512 1510 1509 1507 1506 1505 1504 1503 1503 1503 1504 1505 1506 1508 1510 1512 1513 1515 1517 1518 1519 1520
1566 1563 1560 1558 1555 1553 1551 1548 1546 1544 1541 1539 1535 1532 1530 1527 1525 1523 1521 1519 1518 1516 1514 1512 1510 1508 1506 1505 1504 1503 1503 1503 1504 1505 1506 1508 1510 1513 1515 1516 1518 1520 1521
1566 1564 1561 1558 1556 1554 1551 1550 1548 1546 1543 1541 1538 1535 1533 1530 1528 1526 1524 1522 1521 1518 1516 1514 1512 1510 1508 1506 1504 1503 1503 1503 1503 1504 1505 1507 1510 1512 1514 1516 1518 1520 1522
1566 1563 1561 1559 1557 1554 1552 1550 1548 1547 1545 1543 1540 1538 1535 1533 1531 1529 1527 1525 1523 1521 1519 1516 1514 1512 1509 1507 1505 1504 1503 1503 1503 1504 1505 1507 1509 1511 1513 1516 1518 1520 1522
1565 1563 1561 1559 1557 1555 1553 1551 1549 1547 1546 1544 1542 1540 1538 1535 1533 1531 1530 1528 1525 1523 1521 1519 1516 1514 1511 1509 1507 1505 1504 1503 1503 1504 1505 1506 1508 1511 1513 1515 1518 1520 1522
1565 1563 1561 1560 1558 1556 1554 1552 1550 1548 1547 1546 1544 1542 1540 1538 1536 1534 1532 1530 1528 1526 1524 1521 1519 1516 1513 1511 1509 1507 1505 1504 1504 1504 1505 1506 1508 1510 1512 1515 1517 1520 1523
1565 1563 1562 1560 1558 1556 1554 1552 1551 1549 1548 1547 1546 1544 1542 1540 1539 1537 1535 1532 1530 1528 1526 1523 1521 1518 1516 1513 1511 1509 1507 1506 1506 1506 1506 1507 1509 1510 1513 1515 1518 1520 1523
1564 1563 1562 1561 1559 1557 1555 1553 1552 1550 1549 1548 1547 1546 1544 1543 1541 1539 1537 1535 1533 1530 1528 1526 1523 1521 1519 1516 1514 1512 1510 1509 1508 1508 1508 1509 1510 1512 1514 1516 1518 1521 1524
1564 1563 1562 1560 1559 1557 1555 1554 1553 1551 1550 1549 1548 1547 1546 1545 1543 1541 1539 1537 1535 1533 1531 1529 1526 1524 1521 1519 1517 1515 1513 1511 1511 1511 1511 1511 1512 1514 1516 1518 1520 1522 1524
1563 1562 1561 1560 1559 1557 1556 1554 1553 1552 1551 1550 1549 1549 1548 1546 1545 1543 1542 1540 1537 1535 1533 1531 1529 1527 1525 1522 1520 1518 1516 1515 1514 1514 1514 1515 1516 1517 1518 1520 1522 1524 1526